Tracking 29510 objects as of 16-Sep-2024
HD Live streaming from Space Station
objects crossing your sky now

MRC-100

Track MRC-100 now!
10-day predictions
MRC-100 is classified as:


NORAD ID: 56993
Int'l Code: 2023-084BV
Perigee: 442.8 km
Apogee: 451.5 km
Inclination: 97.5 °
Period: 93.4 minutes
Semi major axis: 6818 km
RCS: Unknown
Launch date: June 12, 2023
Source: Hungary (HUN)
Launch site: AIR FORCE WESTERN TEST RANGE (AFWTR)

Uplink (MHz):
Downlink (MHz): 436.720
Beacon (MHz):
Mode: 1k25/2k5/5k/12k5*GMSK
Call sign:
Status: Active

Your satellite tracking list
Your tracking list is empty




NASA's NSSDC Master Catalog

Two Line Element Set (TLE):
1 56993U 23084BV  24260.30222504  .00097840  00000-0  22644-2 0  9999
2 56993  97.5359  22.0023 0006370  49.3985 310.7815 15.42076636 70197
Source of the keplerian elements: AFSPC